This is the latest recevied weather packets stored in our database for station/object WA4IKQ. If no packets are shown the sender has not sent any weather packets the latest 10 day(s).
| Time | Temp. | Humidity | Pressure | Rain* | Wind** | Luminosity | Snow |
|---|---|---|---|---|---|---|---|
| 1777924670 | 26.67° C | 50% | 1015.6 hPa | 0 mm | 2.24 m/s, 68° | - | - |
| 1777924630 | 26.67° C | 50% | 1015.6 hPa | 0 mm | 2.24 m/s, 68° | - | - |
| 1777924200 | 26.67° C | 49% | 1015.5 hPa | 0 mm | 3.13 m/s, 359° | - | - |
| 1777923518 | 27.22° C | 49% | 1015.7 hPa | 0 mm | 4.92 m/s, 21° | - | - |
| 1777922975 | 26.67° C | 48% | 1015.7 hPa | 0 mm | 3.58 m/s, 77° | - | - |
| 1777922702 | 26.67° C | 48% | 1015.7 hPa | 0 mm | 3.58 m/s, 77° | - | - |
| 1777922509 | 26.67° C | 49% | 1015.7 hPa | 0 mm | 2.24 m/s, 13° | - | - |
| 1777921958 | 26.67° C | 50% | 1016 hPa | 0 mm | 1.34 m/s, 0° | - | - |
| 1777921800 | 26.67° C | 50% | 1016 hPa | 0 mm | 1.34 m/s, 0° | - | - |
| 1777919843 | 26.67° C | 48% | 1016.3 hPa | 0 mm | 3.13 m/s, 356° | - | - |
| 1777919699 | 26.67° C | 48% | 1016.3 hPa | 0 mm | 3.13 m/s, 356° | - | - |
| 1777919530 | 26.67° C | 49% | 1016.4 hPa | 0 mm | 1.79 m/s, 45° | - | - |
| 1777919242 | 26.67° C | 49% | 1016.4 hPa | 0 mm | 3.13 m/s, 13° | - | - |
| 1777919103 | 26.67° C | 49% | 1016.4 hPa | 0 mm | 3.13 m/s, 13° | - | - |
| 1777919075 | 26.67° C | 49% | 1016.5 hPa | 0 mm | 3.58 m/s, 24° | - | - |
| 1777918982 | 26.67° C | 49% | 1016.5 hPa | 0 mm | 3.58 m/s, 24° | - | - |
| 1777918677 | 26.67° C | 48% | 1016.5 hPa | 0 mm | 3.58 m/s, 32° | - | - |
| 1777918501 | 26.67° C | 48% | 1016.5 hPa | 0 mm | 3.58 m/s, 32° | - | - |
| 1777918344 | 26.67° C | 49% | 1016.5 hPa | 0 mm | 3.13 m/s, 14° | - | - |
| 1777918200 | 26.67° C | 49% | 1016.5 hPa | 0 mm | 3.13 m/s, 14° | - | - |
| 1777917997 | 26.67° C | 49% | 1016.7 hPa | 0 mm | 1.34 m/s, 25° | - | - |
| 1777917817 | 26.67° C | 50% | 1016.6 hPa | 0 mm | 3.13 m/s, 359° | - | - |
| 1777917695 | 26.67° C | 50% | 1016.6 hPa | 0 mm | 3.13 m/s, 359° | - | - |
| 1777917444 | 26.67° C | 49% | 1016.6 hPa | 0 mm | 3.13 m/s, 7° | - | - |
| 1777917126 | 26.67° C | 49% | 1016.7 hPa | 0 mm | 1.34 m/s, 113° | - | - |
* Rain latest hour (hover to see other rain measurements)
** Current wind speed in m/s (hover to see current wind gust speed)